| time (UTC) | temp F | wind direction | speed knots | gust knots | rain 1hr in | rain 24hr in | rain mn in | humidity % | barometer mb |
| 20260507071728 | 46 | 350 | 2.6 | 0.0 | 0.00 | 0.00 | 0.00 | 99 | |
| 20260507061728 | 46 | 10 | 4.3 | 0.0 | 0.00 | 0.00 | 0.00 | 99 | |
| 20260507051728 | 46 | 350 | 1.7 | 0.0 | 0.00 | 0.00 | 0.00 | 99 | |
| 20260507041930 | 46 | 30 | 1.7 | 0.0 | 0.00 | 0.00 | 0.00 | 99 | |
| 20260507031728 | 46 | 290 | 2.6 | 0.0 | 0.00 | 0.00 | 0.00 | 99 | |
| 20260507021727 | 46 | 100 | 2.6 | 0.0 | 0.00 | 0.00 | 0.00 | 99 | |
| 20260507011827 | 46 | 350 | 5.2 | 0.0 | 0.00 | 0.00 | 0.00 | 99 | |
| 20260507001729 | 46 | 10 | 5.2 | 0.0 | 0.00 | 0.00 | 0.00 | 99 | |
| 20260506231728 | 48 | 320 | 5.2 | 0.0 | 0.00 | 0.00 | 0.00 | 99 | |
| 20260506221929 | 50 | 20 | 2.6 | 0.0 | 0.00 | 0.00 | 0.00 | 99 | |
| 20260506211728 | 50 | 10 | 6.1 | 0.0 | 0.00 | 0.00 | 0.00 | 99 | |
| 20260506201729 | 50 | 10 | 7.0 | 0.0 | 0.00 | 0.00 | 0.00 | 99 | |
| 20260506191801 | 52 | 10 | 5.2 | 0.0 | 0.00 | 0.00 | 0.00 | 93 | |
| 20260506181801 | 55 | 20 | 2.6 | 0.0 | 0.00 | 0.00 | 0.00 | 87 | |
| 20260506171728 | 57 | 0 | 0.0 | 0.0 | 0.00 | 0.00 | 0.00 | 76 | |
| 20260506161928 | 57 | 160 | 7.8 | 0.0 | 0.00 | 0.00 | 0.00 | 67 | |
| 20260506151729 | 61 | 220 | 4.3 | 0.0 | 0.00 | 0.00 | 0.00 | 59 | |
| 20260506141729 | 61 | 220 | 7.0 | 0.0 | 0.00 | 0.00 | 0.00 | 55 | |
| 20260506131729 | 59 | 200 | 11.3 | 0.0 | 0.00 | 0.00 | 0.00 | 54 | |
| 20260506121728 | 59 | 200 | 12.2 | 0.0 | 0.00 | 0.00 | 0.00 | 62 | |
| 20260506111729 | 55 | 230 | 8.7 | 14.8 | 0.00 | 0.00 | 0.00 | 71 | |
| 20260506101929 | 57 | 200 | 13.9 | 0.0 | 0.00 | 0.00 | 0.00 | 71 | |
| 20260506091729 | 55 | 190 | 13.9 | 21.7 | 0.00 | 0.00 | 0.00 | 76 | |
| 20260506081728 | 54 | 190 | 14.8 | 0.0 | 0.00 | 0.00 | 0.00 | 81 |